| time (UTC) | temp C | wind direction | speed KPH | gust KPH | rain 1hr cm | rain 24hr cm | rain mn cm | humidity % | barometer mb |
| 20260906233035 | 20 | 0 | 0.0 | 0.0 | 0.00 | 0.00 | 0.00 | 78 | 1015.3 |
| 20260906231531 | 20 | 0 | 0.0 | 0.0 | 0.00 | 0.00 | 0.00 | 75 | 1015.3 |
| 20260906230044 | 21 | 0 | 0.0 | 0.0 | 0.00 | 0.00 | 0.00 | 73 | 1015.2 |
| 20260906224534 | 21 | 0 | 0.0 | 0.0 | 0.00 | 0.00 | 0.00 | 74 | 1015.3 |
| 20260906223040 | 22 | 0 | 0.0 | 0.0 | 0.00 | 0.00 | 0.00 | 67 | 1015.4 |
| 20260906221535 | 23 | 0 | 0.0 | 0.0 | 0.00 | 0.00 | 0.00 | 64 | 1015.2 |
| 20260906220031 | 24 | 0 | 0.0 | 9.7 | 0.00 | 0.00 | 0.00 | 60 | 1015.0 |
| 20260906214533 | 24 | 252 | 0.0 | 9.7 | 0.00 | 0.00 | 0.00 | 60 | 1014.7 |
| 20260906213035 | 24 | 0 | 0.0 | 3.2 | 0.00 | 0.00 | 0.00 | 59 | 1014.8 |
| 20260906211540 | 24 | 0 | 0.0 | 6.4 | 0.00 | 0.00 | 0.00 | 60 | 1014.8 |
| 20260906210034 | 24 | 0 | 0.0 | 3.2 | 0.00 | 0.00 | 0.00 | 58 | 1014.6 |
| 20260906204535 | 24 | 0 | 0.0 | 1.6 | 0.00 | 0.00 | 0.00 | 62 | 1014.6 |
| 20260906203032 | 24 | 0 | 0.0 | 4.8 | 0.00 | 0.00 | 0.00 | 56 | 1014.8 |
| 20260906201536 | 24 | 0 | 0.0 | 3.2 | 0.00 | 0.00 | 0.00 | 60 | 1014.8 |
| 20260906200032 | 24 | 267 | 0.0 | 6.4 | 0.00 | 0.00 | 0.00 | 60 | 1014.7 |
| 20260906194534 | 24 | 0 | 0.0 | 4.8 | 0.00 | 0.00 | 0.00 | 59 | 1014.9 |
| 20260906193034 | 24 | 0 | 0.0 | 11.3 | 0.00 | 0.00 | 0.00 | 61 | 1014.9 |
| 20260906191533 | 24 | 255 | 0.0 | 4.8 | 0.00 | 0.00 | 0.00 | 64 | 1014.9 |
| 20260906190034 | 23 | 257 | 0.0 | 6.4 | 0.00 | 0.00 | 0.00 | 64 | 1014.9 |
| 20260906184535 | 23 | 0 | 0.0 | 6.4 | 0.00 | 0.00 | 0.00 | 64 | 1015.0 |
| 20260906183037 | 23 | 0 | 0.0 | 4.8 | 0.00 | 0.00 | 0.00 | 65 | 1015.1 |
| 20260906181533 | 23 | 0 | 1.6 | 8.0 | 0.00 | 0.00 | 0.00 | 65 | 1015.2 |
| 20260906180046 | 23 | 0 | 0.0 | 4.8 | 0.00 | 0.00 | 0.00 | 67 | 1015.3 |
| 20260906174535 | 23 | 0 | 0.0 | 9.7 | 0.00 | 0.00 | 0.00 | 66 | 1015.2 |
| 20260906173038 | 23 | 121 | 1.6 | 14.5 | 0.00 | 0.00 | 0.00 | 66 | 1015.5 |
| 20260906171532 | 22 | 0 | 0.0 | 9.7 | 0.00 | 0.00 | 0.00 | 68 | 1015.5 |
| 20260906170032 | 22 | 0 | 0.0 | 6.4 | 0.00 | 0.00 | 0.00 | 69 | 1015.7 |
| 20260906164535 | 22 | 0 | 0.0 | 8.0 | 0.00 | 0.00 | 0.00 | 71 | 1015.8 |
| 20260906163036 | 22 | 0 | 0.0 | 8.0 | 0.00 | 0.00 | 0.00 | 73 | 1015.8 |
| 20260906161532 | 21 | 0 | 1.6 | 9.7 | 0.00 | 0.00 | 0.00 | 74 | 1016.0 |
| 20260906160036 | 21 | 71 | 1.6 | 9.7 | 0.00 | 0.00 | 0.00 | 78 | 1016.0 |
| 20260906154534 | 21 | 0 | 0.0 | 9.7 | 0.00 | 0.00 | 0.00 | 75 | 1016.2 |
| 20260906153038 | 21 | 45 | 1.6 | 11.3 | 0.00 | 0.00 | 0.00 | 78 | 1016.1 |
| 20260906151534 | 21 | 0 | 0.0 | 0.0 | 0.00 | 0.00 | 0.00 | 78 | 1016.0 |
| 20260906150035 | 21 | 0 | 0.0 | 6.4 | 0.00 | 0.00 | 0.00 | 78 | 1016.0 |
| 20260906144537 | 21 | 0 | 1.6 | 11.3 | 0.00 | 0.00 | 0.00 | 77 | 1015.8 |
| 20260906143031 | 20 | 0 | 1.6 | 4.8 | 0.00 | 0.00 | 0.00 | 79 | 1015.9 |
| 20260906141534 | 20 | 0 | 0.0 | 6.4 | 0.00 | 0.00 | 0.00 | 79 | 1015.7 |
| 20260906140035 | 20 | 0 | 0.0 | 9.7 | 0.00 | 0.00 | 0.00 | 80 | 1015.7 |
| 20260906134537 | 20 | 89 | 1.6 | 8.0 | 0.00 | 0.00 | 0.00 | 80 | 1015.5 |
| 20260906133034 | 20 | 0 | 0.0 | 0.0 | 0.00 | 0.00 | 0.00 | 81 | 1015.3 |
| 20260906131531 | 19 | 76 | 1.6 | 11.3 | 0.00 | 0.00 | 0.00 | 84 | 1015.4 |
| 20260906130039 | 18 | 0 | 0.0 | 0.0 | 0.00 | 0.00 | 0.00 | 88 | 1015.3 |
| 20260906124538 | 18 | 0 | 0.0 | 4.8 | 0.00 | 0.00 | 0.00 | 92 | 1015.3 |
| 20260906123034 | 17 | 84 | 0.0 | 4.8 | 0.00 | 0.00 | 0.00 | 95 | 1015.2 |
| 20260906121531 | 16 | 0 | 0.0 | 1.6 | 0.00 | 0.00 | 0.00 | 97 | 1015.1 |
| 20260906120032 | 16 | 0 | 0.0 | 3.2 | 0.00 | 0.00 | 0.00 | 97 | 1014.9 |
| 20260906114532 | 15 | 0 | 0.0 | 0.0 | 0.00 | 0.00 | 0.00 | 96 | 1014.7 |
| 20260906113034 | 15 | 0 | 0.0 | 0.0 | 0.00 | 0.00 | 0.00 | 96 | 1014.5 |
| 20260906111531 | 15 | 0 | 0.0 | 0.0 | 0.00 | 0.00 | 0.00 | 95 | 1014.2 |
| 20260906110034 | 15 | 0 | 0.0 | 0.0 | 0.00 | 0.00 | 0.00 | 95 | 1014.0 |
| 20260906104530 | 15 | 0 | 0.0 | 0.0 | 0.00 | 0.00 | 0.00 | 96 | 1013.7 |
| 20260906103032 | 15 | 0 | 0.0 | 0.0 | 0.00 | 0.00 | 0.00 | 96 | 1013.6 |
| 20260906101535 | 15 | 0 | 0.0 | 0.0 | 0.00 | 0.00 | 0.00 | 96 | 1013.5 |
| 20260906100033 | 15 | 0 | 0.0 | 0.0 | 0.00 | 0.00 | 0.00 | 95 | 1013.3 |
| 20260906094531 | 15 | 0 | 0.0 | 0.0 | 0.00 | 0.00 | 0.00 | 94 | 1013.2 |
| 20260906093043 | 15 | 0 | 0.0 | 0.0 | 0.00 | 0.00 | 0.00 | 94 | 1013.0 |
| 20260906091533 | 15 | 0 | 0.0 | 0.0 | 0.00 | 0.00 | 0.00 | 93 | 1012.8 |
| 20260906090032 | 15 | 0 | 0.0 | 0.0 | 0.00 | 0.00 | 0.00 | 93 | 1012.6 |
| 20260906084538 | 15 | 0 | 0.0 | 0.0 | 0.00 | 0.00 | 0.00 | 93 | 1012.7 |
| 20260906083035 | 15 | 0 | 0.0 | 0.0 | 0.00 | 0.00 | 0.00 | 92 | 1012.3 |
| 20260906081535 | 15 | 0 | 0.0 | 0.0 | 0.00 | 0.00 | 0.00 | 92 | 1012.4 |
| 20260906080044 | 15 | 0 | 0.0 | 0.0 | 0.00 | 0.00 | 0.00 | 92 | 1012.5 |
| 20260906074532 | 15 | 0 | 0.0 | 0.0 | 0.00 | 0.00 | 0.00 | 92 | 1012.4 |
| 20260906073031 | 15 | 0 | 0.0 | 0.0 | 0.00 | 0.00 | 0.00 | 92 | 1012.2 |
| 20260906071532 | 15 | 0 | 0.0 | 0.0 | 0.00 | 0.00 | 0.00 | 92 | 1012.2 |
| 20260906070039 | 15 | 0 | 0.0 | 0.0 | 0.00 | 0.00 | 0.00 | 92 | 1012.3 |
| 20260906064536 | 15 | 0 | 0.0 | 0.0 | 0.00 | 0.00 | 0.00 | 91 | 1012.3 |
| 20260906063031 | 15 | 0 | 0.0 | 0.0 | 0.00 | 0.00 | 0.00 | 91 | 1012.4 |
| 20260906061539 | 16 | 0 | 0.0 | 0.0 | 0.00 | 0.00 | 0.00 | 91 | 1012.5 |
| 20260906060037 | 16 | 0 | 0.0 | 0.0 | 0.00 | 0.00 | 0.00 | 91 | 1012.6 |
| 20260906054535 | 16 | 0 | 0.0 | 0.0 | 0.00 | 0.00 | 0.00 | 91 | 1012.7 |
| 20260906053033 | 16 | 0 | 0.0 | 0.0 | 0.00 | 0.00 | 0.00 | 91 | 1012.7 |
| 20260906051532 | 16 | 0 | 0.0 | 0.0 | 0.00 | 0.00 | 0.00 | 91 | 1012.9 |
| 20260906050034 | 16 | 0 | 0.0 | 0.0 | 0.00 | 0.00 | 0.00 | 91 | 1012.8 |
| 20260906044534 | 16 | 0 | 0.0 | 0.0 | 0.00 | 0.00 | 0.00 | 91 | 1012.9 |
| 20260906043031 | 16 | 0 | 0.0 | 0.0 | 0.00 | 0.00 | 0.00 | 91 | 1012.8 |
| 20260906041541 | 16 | 0 | 0.0 | 0.0 | 0.00 | 0.00 | 0.00 | 91 | 1012.7 |
| 20260906040044 | 16 | 0 | 0.0 | 0.0 | 0.00 | 0.00 | 0.00 | 90 | 1012.8 |
| 20260906034535 | 16 | 0 | 0.0 | 0.0 | 0.00 | 0.00 | 0.00 | 90 | 1012.7 |
| 20260906033034 | 17 | 0 | 0.0 | 0.0 | 0.00 | 0.00 | 0.00 | 90 | 1012.7 |
| 20260906031531 | 17 | 0 | 0.0 | 0.0 | 0.00 | 0.00 | 0.00 | 90 | 1012.7 |
| 20260906030032 | 17 | 0 | 0.0 | 0.0 | 0.00 | 0.00 | 0.00 | 89 | 1012.4 |
| 20260906024533 | 17 | 0 | 0.0 | 0.0 | 0.00 | 0.00 | 0.00 | 89 | 1012.3 |
| 20260906023042 | 17 | 0 | 0.0 | 0.0 | 0.00 | 0.00 | 0.00 | 89 | 1012.3 |
| 20260906021532 | 17 | 0 | 0.0 | 0.0 | 0.00 | 0.00 | 0.00 | 89 | 1012.3 |
| 20260906020033 | 17 | 0 | 0.0 | 0.0 | 0.00 | 0.00 | 0.00 | 88 | 1012.3 |
| 20260906014539 | 17 | 0 | 0.0 | 0.0 | 0.00 | 0.00 | 0.00 | 87 | 1012.2 |
| 20260906013033 | 18 | 0 | 0.0 | 0.0 | 0.00 | 0.00 | 0.00 | 86 | 1012.2 |
| 20260906011534 | 18 | 0 | 0.0 | 0.0 | 0.00 | 0.00 | 0.00 | 86 | 1012.0 |
| 20260906010033 | 18 | 0 | 0.0 | 0.0 | 0.00 | 0.00 | 0.00 | 86 | 1011.9 |
| 20260906004531 | 18 | 0 | 0.0 | 0.0 | 0.00 | 0.00 | 0.00 | 86 | 1011.7 |
| 20260906003031 | 19 | 0 | 0.0 | 0.0 | 0.00 | 0.00 | 0.00 | 85 | 1011.6 |
| 20260906001533 | 19 | 0 | 0.0 | 0.0 | 0.00 | 0.00 | 0.00 | 84 | 1011.3 |
| 20260906000035 | 20 | 0 | 0.0 | 0.0 | 0.00 | 0.00 | 0.00 | 83 | 1011.1 |
| 20260905234535 | 20 | 0 | 0.0 | 0.0 | 0.00 | 0.00 | 0.00 | 80 | 1010.8 |